GW2039 Weather Reports


Display with metric or nautical units.
time (UTC)temp
F
wind
direction
speed
MPH
gust
MPH
rain 1hr
in
rain 24hr
in
rain mn
in
humidity
%
barometer
mb
20260902013103 80 78 4.0 9.0 0.00 0.00 0.00 90 1007.3
20260902013002 80 94 4.0 9.0 0.00 0.00 0.00 90 1007.3
20260902012902 80 77 4.0 9.0 0.00 0.00 0.00 90 1007.2
20260902012704 81 65 3.0 6.0 0.00 0.00 0.00 90 1007.2
20260902012359 81 82 3.0 8.0 0.00 0.00 0.00 91 1007.1
20260902012258 81 129 3.0 8.0 0.00 0.00 0.00 91 1007.1
20260902012203 81 93 3.0 8.0 0.00 0.00 0.00 91 1007.0
20260902012103 81 83 3.0 8.0 0.00 0.00 0.00 91 1007.1
20260902012002 81 101 3.0 8.0 0.00 0.00 0.00 91 1007.1
20260902011902 81 90 4.0 8.0 0.00 0.00 0.00 91 1007.0
20260902011803 81 83 5.0 8.0 0.00 0.00 0.00 91 1007.1
20260902011704 81 92 4.0 10.0 0.00 0.00 0.00 91 1007.0
20260902011559 81 65 2.0 10.0 0.00 0.00 0.00 91 1007.0
20260902011504 81 92 3.0 10.0 0.00 0.00 0.00 91 1007.0
20260902011358 81 41 4.0 10.0 0.00 0.00 0.00 91 1007.0
20260902011303 81 109 3.0 10.0 0.00 0.00 0.00 91 1007.1
20260902011202 80 84 2.0 10.0 0.00 0.00 0.00 91 1007.0
20260902011102 81 94 3.0 10.0 0.00 0.00 0.00 91 1007.1
20260902010859 80 165 7.0 10.0 0.00 0.00 0.00 91 1007.1
20260902010759 80 112 6.0 9.0 0.00 0.00 0.00 91 1007.0
20260902010659 80 113 5.0 9.0 0.00 0.00 0.00 91 1007.0
20260902010559 80 106 6.0 9.0 0.00 0.00 0.00 91 1007.0
20260902010507 80 117 5.0 9.0 0.00 0.00 0.00 91 1007.0
20260902010358 80 112 5.0 9.0 0.00 0.00 0.00 91 1006.9
20260902010302 80 127 5.0 10.0 0.00 0.00 0.00 91 1006.9
20260902010205 80 123 5.0 10.0 0.00 0.00 0.00 91 1006.9
20260902010007 80 142 6.0 10.0 0.00 0.00 0.00 91 1006.9
20260902005904 80 103 7.0 10.0 0.00 0.00 0.00 91 1006.9
20260902005759 80 111 8.0 10.0 0.00 0.00 0.00 91 1006.9
20260902005704 80 94 8.0 10.0 0.00 0.00 0.00 91 1006.9
20260902005608 80 94 8.0 10.0 0.00 0.00 0.00 91 1006.9
20260902001859 81 65 5.0 9.0 0.00 0.00 0.00 90 1006.8
20260902001803 81 103 5.0 9.0 0.00 0.00 0.00 90 1006.8
20260902001701 81 77 5.0 9.0 0.00 0.00 0.00 90 1006.8
20260902001603 81 82 4.0 11.0 0.00 0.00 0.00 90 1006.8
20260902001506 81 88 5.0 11.0 0.00 0.00 0.00 90 1006.7
20260902001305 81 84 4.0 11.0 0.00 0.00 0.00 90 1006.7
20260902001202 81 126 4.0 11.0 0.00 0.00 0.00 90 1006.6
20260902001105 81 126 5.0 11.0 0.00 0.00 0.00 90 1006.7
20260902001006 81 141 5.0 11.0 0.00 0.00 0.00 90 1006.6
20260902000903 81 19 6.0 11.0 0.00 0.00 0.00 90 1006.6
20260902000805 81 105 5.0 11.0 0.00 0.00 0.00 90 1006.7
20260902000606 81 100 4.0 9.0 0.00 0.00 0.00 90 1006.6
20260902000407 81 71 5.0 9.0 0.00 0.00 0.00 90 1006.6
20260902000204 81 67 3.0 8.0 0.00 0.00 0.00 90 1006.7
20260902000101 81 90 3.0 8.0 0.00 0.00 0.00 90 1006.6
20260902000003 81 58 4.0 8.0 0.00 0.00 0.00 90 1006.7
20260901235858 81 162 4.0 8.0 0.00 0.00 0.00 90 1006.7
20260901235758 81 71 5.0 8.0 0.00 0.00 0.00 91 1006.6
20260901235702 81 68 4.0 8.0 0.00 0.00 0.00 91 1006.7
20260901235559 81 115 4.0 8.0 0.00 0.00 0.00 91 1006.6
20260901235502 81 35 4.0 8.0 0.00 0.00 0.00 91 1006.6
20260901235358 81 98 3.0 6.0 0.00 0.00 0.00 91 1006.5
20260901235203 81 57 4.0 8.0 0.00 0.00 0.00 90 1006.3
20260901235103 81 64 4.0 8.0 0.00 0.00 0.00 90 1006.3
20260901235020 81 101 4.0 9.0 0.00 0.00 0.00 90 1006.3
20260901234900 82 96 4.0 9.0 0.00 0.00 0.00 90 1006.2
20260901234805 81 100 3.0 9.0 0.00 0.00 0.00 90 1006.2
20260901234703 82 134 4.0 9.0 0.00 0.00 0.00 90 1006.2
20260901234507 82 124 4.0 9.0 0.00 0.00 0.00 90 1006.2
20260901234301 82 106 5.0 9.0 0.00 0.00 0.00 90 1006.3
20260901234158 82 46 4.0 9.0 0.00 0.00 0.00 90 1006.1
20260901234100 82 52 3.0 8.0 0.00 0.00 0.00 90 1006.2
20260901234008 82 46 3.0 8.0 0.00 0.00 0.00 90 1006.2
20260901233903 82 105 4.0 8.0 0.00 0.00 0.00 90 1006.2
20260901233802 82 72 4.0 8.0 0.00 0.00 0.00 90 1006.2
20260901233700 82 78 3.0 7.0 0.00 0.00 0.00 90 1006.2
20260901233501 82 163 3.0 8.0 0.00 0.00 0.00 90 1006.2
20260901233403 82 96 3.0 8.0 0.00 0.00 0.00 90 1006.2
20260901233304 82 41 3.0 8.0 0.00 0.00 0.00 90 1006.3
20260901233205 82 105 4.0 8.0 0.00 0.00 0.00 90 1006.3
20260901233100 82 92 4.0 8.0 0.00 0.00 0.00 90 1006.3
20260901233008 82 107 4.0 8.0 0.00 0.00 0.00 90 1006.3
20260901232903 82 47 3.0 8.0 0.00 0.00 0.00 90 1006.3
20260901232801 82 92 3.0 7.0 0.00 0.00 0.00 90 1006.4
20260901232658 82 82 2.0 7.0 0.00 0.00 0.00 90 1006.4
20260901232601 82 78 2.0 6.0 0.00 0.00 0.00 90 1006.4
20260901232400 82 109 2.0 8.0 0.00 0.00 0.00 90 1006.3
20260901181600 84 65 3.0 5.0 0.00 0.00 0.00 88 1007.1
20260901181501 84 48 3.0 5.0 0.00 0.00 0.00 88 1007.1
20260901181359 84 48 3.0 5.0 0.00 0.00 0.00 88 1007.1
20260901181301 84 48 3.0 5.0 0.00 0.00 0.00 88 1007.1
20260901181208 84 48 3.0 5.0 0.00 0.00 0.00 88 1007.1
20260901160258 84 60 3.0 7.0 0.00 0.00 0.00 83 1007.0
20260901160200 84 36 4.0 7.0 0.00 0.00 0.00 83 1007.0
20260901160010 84 39 5.0 7.0 0.00 0.00 0.00 83 1007.0
20260901155909 84 39 5.0 7.0 0.00 0.00 0.00 83 1007.0
20260901131402 87 48 9.0 13.0 0.00 0.00 0.00 79 1004.9
20260901131259 87 53 9.0 13.0 0.00 0.00 0.00 79 1004.9
20260901131205 88 53 9.0 13.0 0.00 0.00 0.00 79 1004.9
20260901131104 88 49 7.0 10.0 0.00 0.00 0.00 79 1004.9
20260901131008 88 49 4.0 9.0 0.00 0.00 0.00 79 1004.9
20260901130901 88 84 3.0 9.0 0.00 0.00 0.00 79 1005.0
20260901130801 88 24 3.0 9.0 0.00 0.00 0.00 79 1004.9
20260901130709 88 67 4.0 9.0 0.00 0.00 0.00 79 1005.0
20260901130602 88 52 4.0 10.0 0.00 0.00 0.00 78 1005.0
20260901130504 88 57 3.0 10.0 0.00 0.00 0.00 78 1004.9
20260901130402 88 67 3.0 10.0 0.00 0.00 0.00 78 1004.9
20260901130301 88 80 4.0 10.0 0.00 0.00 0.00 78 1004.9
20260901130201 88 65 5.0 11.0 0.00 0.00 0.00 77 1005.0
20260901130011 88 69 6.0 11.0 0.00 0.00 0.00 77 1004.9
20260901125903 89 55 6.0 11.0 0.00 0.00 0.00 76 1005.0
20260901125802 89 54 8.0 11.0 0.00 0.00 0.00 76 1004.9
20260901125700 89 55 6.0 11.0 0.00 0.00 0.00 75 1004.9
20260901125602 90 56 6.0 11.0 0.00 0.00 0.00 75 1004.9
20260901125308 90 51 4.0 9.0 0.00 0.00 0.00 74 1004.8
20260901125203 91 38 4.0 9.0 0.00 0.00 0.00 73 1004.8
20260901125005 91 9 3.0 9.0 0.00 0.00 0.00 72 1004.7
20260901124904 91 30 3.0 8.0 0.00 0.00 0.00 70 1004.7
20260901124804 91 30 3.0 8.0 0.00 0.00 0.00 70 1004.7
20260901124703 91 30 3.0 8.0 0.00 0.00 0.00 70 1004.7
20260901124642 91 30 3.0 8.0 0.00 0.00 0.00 70 1004.8